{"data":{"norad_id":48767,"intl_designator":"2021-045A","name":"ONEWEB-0211","alt_names":[],"object_type":"PAYLOAD","status":"ACTIVE","operator":null,"country":"UK","launch_date":"2021-05-28","launch_site_code":"VOSTO","launch_vehicle":null,"mission":null,"orbit_class":"UNKNOWN","rcs_meters":null,"size_class":null,"mass_kg":null,"dimensions":null,"purposes":["comms"],"wikipedia_slug":null,"has_3d_model":false,"image_url":null,"decayed_at":null,"tle_current":{"epoch":"2026-09-20T05:10:40.703232Z","epoch_age_seconds":46565,"freshness":"FRESH","line1":"1 48767U 21045A   26263.21574888  .00000004  00000+0 -24115-4 0  9997","line2":"2 48767  87.8987 240.1133 0001583  64.6498 295.4796 13.16197909256943","mean_motion":13.16197909,"eccentricity":0.0001583,"inclination_deg":87.8987,"raan_deg":240.1133,"arg_perigee_deg":64.6498,"mean_anomaly_deg":295.4796,"bstar":-2.4115e-5,"rev_number":25694,"period_min":109.40603917948,"perigee_km":1198.0779770463,"apogee_km":1200.4769864712,"semimajor_km":7577.4144817587,"source":"CELESTRAK","updated_at":"2026-09-20T09:00:44.614665Z"}}}